Regional Weather Roundup
Issued by NWS

Home | Current Version | Previous Version | Graphics & Text | Print | Product List | Glossary Off
Versions: 1 2 3 4 5 6 7 8 9 10 11 12 13 14 15 16 17 18 19 20 21 22 23 24 25 26 27 28 29 30 31 32 33 34 35 36 37 38 39 40 41 42 43 44 45 46 47 48 49 50

000
ASUS43 KMKX 192200
RWRWI

WISCONSIN REGIONAL WEATHER ROUNDUP
NATIONAL WEATHER SERVICE MILWAUKEE/SULLIVAN WI
500 PM CDT TUE SEP 19 2017

NOTE: "FAIR" INDICATES FEW OR NO CLOUDS BELOW 12,000 FEET WITH NO
SIGNIFICANT WEATHER AND/OR OBSTRUCTIONS TO VISIBILITY.

WIZ001-002-006>008-014>016-023>028-192300-
NORTHWEST WISCONSIN

CITY           SKY/WX    TMP DP  RH WIND       PRES   REMARKS
SUPERIOR ARPT  PTSUNNY   62  58  86 NE15G23   29.83F
ASHLAND        MOSUNNY   68  60  75 N8        29.85F
HAYWARD        MOSUNNY   74  58  57 S13       29.84F
SIREN          PTSUNNY   76  60  56 S14G20    29.80F
CUMBERLAND     PTSUNNY   73  59  60 SE16G23   29.83F
RICE LAKE      SUNNY     77  60  55 SE15      29.84F
CHETEK         MOSUNNY   75  63  65 SE12G18   29.84F
LADYSMITH      MOSUNNY   76  57  51 SE10      29.89S
EAU CLAIRE     NOT AVBL
MENOMONIE      MOSUNNY   78  63  60 SE10G17   29.83F HX  80
NEW RICHMOND   CLOUDY    76  60  58 SE12      29.80F
OSCEOLA        CLOUDY    77  61  57 SE16G25   29.80F
$$

WIZ003>005-009-010-017-018-192300-
NORTH CENTRAL WISCONSIN

CITY           SKY/WX    TMP DP  RH WIND       PRES   REMARKS
MANITOWISH WTR PTSUNNY   72  57  60 SE7       29.92F
ARBOR VITAE    MOSUNNY   77  60  56 S9        29.92F
WOODRUFF       MOSUNNY   77  60  56 S9        29.92F
RHINELANDER    SUNNY     72  58  61 SE10      29.94F
EAGLE RIVER    SUNNY     72  53  52 SE10      29.94F
LAND O LAKES   PTSUNNY   73  56  56 SE12      29.95F
PHILLIPS       PTSUNNY   75  57  53 SE13      29.89F
TOMAHAWK         N/A     74  55  50 SE5       29.92F
MEDFORD        SUNNY     74  54  49 SE7       29.90F
MERRILL        NOT AVBL
$$

WIZ029-030-035-036-043>047-192300-
CENTRAL WISCONSIN

CITY           SKY/WX    TMP DP  RH WIND       PRES   REMARKS
WAUSAU         SUNNY     74  57  55 SE12G18   29.90F
MOSINEE        MOSUNNY   73  57  56 SE12      29.92F
MARSHFIELD     SUNNY     76  51  41 SE10      29.89F
STEVENS POINT  SUNNY     74  56  53 E13       29.92F
WAUPACA        SUNNY     78  59  51 E12       29.93F HX  80
WAUTOMA        SUNNY     79  57  46 E9        29.90F HX  80
WISC RAPIDS    SUNNY     79  54  41 SE14      29.90F
CAMP DOUGLAS   NOT AVBL
$$

WIZ011>013-019>022-031-037>040-048>050-192300-
NORTHEAST WISCONSIN

CITY           SKY/WX    TMP DP  RH WIND       PRES   REMARKS
ANTIGO         SUNNY     71  58  62 SE12      29.95F
SHAWANO        MOSUNNY   76  60  59 SE7       29.94F
OCONTO         SUNNY     72  55  54 SE8       29.95F
STURGEON BAY   SUNNY     70  52  52 E7        29.97F
GREEN BAY      SUNNY     74  58  57 E7        29.94F
MANITOWOC      SUNNY     67  60  78 E8        29.96F
APPLETON       MOSUNNY   73  54  49 SE12      29.93F
CLINTONVILLE   MOSUNNY   75  55  50 E8        29.93F
OSHKOSH        SUNNY     74  61  63 E12       29.92F
$$

WIZ032>034-041-042-053>061-192300-
SOUTHWEST WISCONSIN

CITY           SKY/WX    TMP DP  RH WIND       PRES   REMARKS
LA CROSSE      MOSUNNY   82  63  52 SE9       29.82F HX  83
SPARTA         SUNNY     80  60  50 S12       29.87F HX  81
VIROQUA        MOSUNNY   77  64  63 SE10G17   29.88F
BOSCOBEL       MOSUNNY   83  62  49 SE7       29.85F HX  84
PRAIRIE DU CHI SUNNY     81  59  46 SE7       29.84F HX  81
PLATTEVILLE    SUNNY     80  63  56 S10       29.89F HX  81
$$

WIZ056-057-062-063-064-067-068-192300-
SOUTH CENTRAL WISCONSIN

CITY           SKY/WX    TMP DP  RH WIND       PRES   REMARKS
REEDSBURG      SUNNY     80  59  49 S7        29.89F HX  80
BARABOO/DELLS  SUNNY     80  53  39 SE12      29.90F HX  80
LONE ROCK      NOT AVBL
MINERAL POINT  MOSUNNY   81  63  54 SE8       29.89F HX  82
MADISON        MOSUNNY   80  62  54 VRB6      29.89F HX  81
MIDDLETON      PTSUNNY   82  62  51 SE9       29.91S HX  82
WATERTOWN      SUNNY     77  65  65 E9        29.91S
MONROE         MOSUNNY   77  61  57 SE6       29.90F
JANESVILLE     MOSUNNY   79  61  53 SE8       29.90S HX  80
$$

WIZ051-052-058>065-066-070>072-192300-
SOUTHEAST WISCONSIN

CITY           SKY/WX    TMP DP  RH WIND       PRES   REMARKS
MILWAUKEE      CLOUDY    69  64  84 E10       29.94F
WAUKESHA       MOSUNNY   70  61  73 E9        29.94F
MILWAUKEE/TIMM CLOUDY    68  59  73 E7        29.95F
RACINE         CLOUDY    69  66  90 E8        29.96S FOG
BURLINGTON     SUNNY     75  65  71 E9        29.92F
KENOSHA        PTSUNNY   72  64  76 E8        29.94F
FOND DU LAC    SUNNY     76  56  49 SE12      29.92F
SHEBOYGAN      SUNNY     70  61  73 VRB5      29.95F
WEST BEND        N/A     70  61  73 SE10      29.95S
JUNEAU         SUNNY     76  62  61 E7        29.93S
$$

LSZ147-162-192300-
LAKE SUPERIOR

STATION/POSITION TIME  TEMP    WIND        PRES    WAVE
                       AIR SEA DIR/SP/G            HT/PER
                 (UTC) (F)     (DEG/KT/KT) (MB)    (FT/S)
W MID LAKE BUOY  2050   57 55   50/ 14/ 16 1012.7F   1/ 4
DEVILS ISLAND    2100   58      60/ 14/ 15 1012.3F
SAXON HARBOR     2130   65     300/  4/  5 1011.2S
$$

LMZ867-665-643>646-192300-
LAKE MICHIGAN

STATION/POSITION TIME  TEMP    WIND        PRES    WAVE
                       AIR SEA DIR/SP/G            HT/PER
                 (UTC) (F)     (DEG/KT/KT) (MB)    (FT/S)
S GREEN BAY BUOY 2130   70 67  120/  6/  8 1014.5F
N MID LAKE BUOY  2050   65 65   70/  8/ 10 1016.1F   1/ 3
NORTHPORT PIER   2140   65      80/  7/  9 1014.9F
KEWAUNEE LAKESHO 2124   66      CALM  /  4 1014.1
SHEBOYGAN LAKESH 2100   65      80/  8/  8 1014.3F
PORT WASHINGTON  2130   67     100/  5/  9 1015.2S
ATWATER BUOY     2009   66 68   60/ 10/ 12 1014.6F
MILWAUKEE LAKESH 2130   66      70/  8/  9   N/A
S MID LAKE BUOY  2050   68 69   50/  6/  6 1014.2S   1/ 4
KENOSHA   LAKESH 2100   68      80/ 10/ 11 1013.5
$$

TC  - TEMPERATURE IN CELSIUS
VSB - VISIBILITY IN STATUTE MILES
WCI - WIND CHILL INDEX
HX  - HEAT INDEX





USA.gov is the U.S. government's official web portal to all federal, state and local government web resources and services.